[[{"header":{"parameterUnit":"m.s-1","parameterCategory":1,"la1":30.2991,"la2":30.254,"lo1":-89.0895,"lo2":-89.0444,"dy":0.0017,"dx":0.0017,"nx":28,"ny":28,"refTime":"2025-06-10T03:00:00:Z","depth":0,"parameterNumber":2,"parameterNumberName":"U-component_of_WINDS"},"data":[0,0,0,0,0,0,0,0,0,0,0,0,0,0,0,0,0,0,0,0,0,0,0,0,0,0,0,0,0,0,0,0,0,0,0,0,0,0,0,0,0,0,0,0,0,0,0,0,0,0,0,0,0,0,0,0,0,0,2.9264,2.9265,0,2.9358,2.9359,2.936,2.9328,2.9326,2.9324,2.9322,2.9426,2.943,2.9435,0,0,0,0,0,0,0,0,0,0,0,0,0,2.9062,2.9066,2.9264,2.9265,2.9266,2.9357,2.9359,2.936,2.9328,2.9326,2.9323,2.9321,2.9424,2.943,2.9435,0,0,0,0,0,0,0,0,0,0,0,0,0,2.9152,2.9067,2.9264,2.9261,2.9262,2.9357,2.9359,2.936,2.9329,2.9326,2.9323,2.932,2.9422,2.9429,2.9436,2.9542,0,0,2.9458,2.9461,0,0,0,0,0,0,0,0,2.9147,2.916,2.926,2.9262,2.9263,2.9328,2.9325,2.9422,2.933,2.9304,2.9322,2.9318,2.9396,2.9405,2.943,2.9547,2.9551,2.9458,2.9463,2.9466,2.9468,0,0,0,0,0,0,0,2.9141,2.9156,2.9301,2.9262,2.9263,2.9257,2.9266,2.9344,2.9367,2.9306,2.9304,2.9315,2.9396,2.9423,2.9432,2.9553,2.9458,2.9464,2.9469,2.9471,2.9757,2.9761,0,0,0,0,0,0,2.9133,2.9151,2.9298,2.9304,2.9196,2.9263,2.9273,2.931,2.9365,2.9371,2.9317,2.9313,2.9413,2.9424,2.9436,2.956,2.9465,2.9472,2.9476,2.9754,2.9758,2.9762,0,0,0,0,0,0,2.9129,2.9147,2.9294,2.9227,2.9245,2.927,2.9311,2.9314,2.934,2.9374,2.9379,2.934,2.9411,2.9426,2.9514,2.9563,2.9475,2.9482,2.975,2.9755,2.976,2.9812,0,0,0,0,0,0,2.9123,2.9145,2.9185,2.9228,2.9249,2.937,2.9314,2.9318,2.9352,2.9347,2.9397,2.9402,2.9409,2.9504,2.9521,2.9571,2.9487,2.9746,2.9752,2.9758,2.9806,2.9818,2.9828,0,0,0,0,0,2.9116,2.9198,2.9187,2.9205,2.9298,2.9373,2.9385,2.9389,2.9356,2.9396,2.9417,2.9401,2.9555,2.9513,2.9532,2.9586,2.9743,2.9751,2.9758,2.9801,2.9815,2.9828,0,0,0,0,0,0,2.9164,2.9204,2.9192,2.929,2.9328,2.9368,2.9419,2.9406,2.9456,2.945,2.9455,2.9467,2.9557,2.9581,2.9533,2.9689,2.9644,2.9656,2.967,2.9684,2.9696,2.9688,2.9493,0,0,0,0,0,2.9186,2.9241,2.9274,2.9357,2.9377,2.9394,2.9427,2.9426,2.9467,2.9484,2.9512,2.9554,2.9611,2.965,2.9705,2.9809,2.9819,2.9855,2.9866,2.9875,2.9885,2.9939,2.9955,2.9787,2.9787,2.9786,0,0,2.9232,2.926,2.9296,2.9368,2.9397,2.9455,2.9408,2.9473,2.9516,2.9495,2.9578,2.96,2.9647,2.9743,2.9787,2.9766,2.9934,2.9885,2.9892,2.9897,2.9949,2.9965,2.9979,2.9792,2.9791,2.979,0,0,2.9345,2.9372,2.9443,2.9472,2.9516,2.9526,2.9543,2.9584,2.9596,2.968,2.9664,2.9717,2.9817,2.9849,2.988,3.0001,2.9987,3.0019,3.0078,3.0131,3.0144,3.0156,3.0197,3.0212,3.0029,3.0029,3.0029,0,2.9397,2.9482,2.9482,2.9546,2.9577,2.9557,2.9628,2.9658,2.9718,2.9741,2.9715,2.9837,2.9868,2.997,2.9999,3.0025,3.0044,3.0013,3.0142,3.0153,3.0164,3.0204,3.0219,3.0033,3.0032,3.0032,3.0032,0,2.9542,2.9602,2.9654,2.9708,2.9746,2.9814,2.9824,2.9863,2.9858,2.9872,2.9956,2.9991,3.0052,3.0076,3.0075,3.0177,3.0162,3.0139,3.0094,3.0184,3.0221,3.0236,3.0038,3.0036,3.0035,3.0035,0,0,2.969,2.974,2.9759,2.9782,2.9827,2.9874,2.994,2.9996,3.0027,3.007,3.0125,3.0208,3.0186,3.022,3.0222,3.0268,3.0358,3.0239,3.024,3.0258,3.0471,3.0486,3.0504,3.0349,3.0352,3.0355,3.0466,0,2.9804,2.9918,2.9918,3.0023,3.0077,3.0057,3.0114,3.0149,3.0163,3.0211,3.0228,3.0285,3.0253,3.0273,3.0318,3.0338,3.0401,3.033,3.0401,3.0404,3.0388,3.0524,3.0541,3.0645,3.0481,3.0483,3.0485,0,2.9953,2.9995,3.0105,3.0138,3.0161,3.0212,3.0261,3.0308,3.0347,3.0353,3.0389,3.0383,3.0451,3.0404,3.0497,3.0449,3.0478,3.0493,3.0497,3.0503,3.0449,3.0532,3.0678,3.0693,3.0509,3.0507,3.0505,0,3.0046,3.0131,3.0206,3.0227,3.0269,3.0305,3.0325,3.036,3.0392,3.0436,3.0457,3.051,3.0538,3.058,3.0588,3.0553,3.0681,3.0635,3.0689,3.0688,3.0716,3.0714,3.0867,3.0738,3.0738,3.0737,3.0737,0,3.0173,3.024,3.0248,3.0294,3.0368,3.0368,3.0443,3.046,3.049,3.054,3.0528,3.0575,3.0583,3.0633,3.0641,3.0716,3.073,3.0737,3.0738,3.0737,3.0736,3.0756,3.0748,3.0741,3.0741,3.074,3.0739,0,3.0289,3.0297,3.0377,3.0409,3.0418,3.0472,3.0499,3.0544,3.0555,3.0618,3.0633,3.0652,3.0709,3.0721,3.0791,3.0795,3.0884,3.0879,3.087,3.0869,3.092,3.0915,3.1091,3.1113,3.0971,3.0972,3.0973,0,3.0369,3.0419,3.0455,3.0485,3.0505,3.0556,3.0587,3.0589,3.0623,3.0668,3.0707,3.0762,3.0806,3.0899,3.092,3.0972,3.0967,3.1025,3.0975,3.0972,3.0966,3.0962,3.0966,3.1035,3.1036,3.1038,3.1039,0,3.0508,3.0509,3.0553,3.0598,3.0635,3.0672,3.0707,3.0733,3.0739,3.0778,3.0834,3.0868,3.0936,3.0991,3.1042,3.1064,3.1053,3.1054,3.1069,3.1068,3.1059,3.1062,3.0894,3.105,3.1049,3.1048,3.1047,3.1047,3.0607,3.065,3.068,3.0729,3.0754,3.0786,3.0828,3.0843,3.0889,3.0942,3.0941,3.1002,3.1037,3.1105,3.1129,3.1178,3.116,3.1183,3.1188,3.1193,3.1196,3.1052,3.1188,3.1188,3.1188,3.1187,3.1187,0,3.0744,3.0761,3.0806,3.0853,3.0891,3.0874,3.091,3.0944,3.0997,3.1029,3.1071,3.1135,3.1187,3.1211,3.1263,3.1297,3.1293,3.131,3.1307,3.1312,3.121,3.1191,3.1313,3.1313,3.1313,3.1312,3.1312,3.1312,3.0819,3.0889,3.0893,3.0974,3.0992,3.1049,3.1071,3.11,3.1125,3.1196,3.1237,3.1251,3.128,3.1333,3.138,3.1386,3.1405,3.1425,3.1428,3.1332,3.132,3.1307,3.1289,3.1429,3.1429,3.1525,3.1526,3.1527]},{"header":{"parameterUnit":"m.s-1","parameterCategory":1,"la1":30.2991,"la2":30.254,"lo1":-89.0895,"lo2":-89.0444,"dy":0.0017,"dx":0.0017,"nx":28,"ny":28,"refTime":"2025-06-10T03:00:00:Z","depth":0,"parameterNumber":3,"parameterNumberName":"V-component_of_WINDS"},"data":[0,0,0,0,0,0,0,0,0,0,0,0,0,0,0,0,0,0,0,0,0,0,0,0,0,0,0,0,0,0,0,0,0,0,0,0,0,0,0,0,0,0,0,0,0,0,0,0,0,0,0,0,0,0,0,0,0,0,4.3225,4.3228,0,4.3442,4.3445,4.3447,4.3489,4.3487,4.3486,4.3484,4.3701,4.3708,4.3715,0,0,0,0,0,0,0,0,0,0,0,0,0,4.2841,4.2847,4.3225,4.3228,4.323,4.3442,4.3445,4.3448,4.3489,4.3487,4.3485,4.3483,4.3698,4.3707,4.3716,0,0,0,0,0,0,0,0,0,0,0,0,0,4.3027,4.285,4.3225,4.3277,4.3284,4.3441,4.3445,4.3448,4.349,4.3487,4.3485,4.3482,4.3696,4.3706,4.3717,4.3836,0,0,4.3751,4.3756,0,0,0,0,0,0,0,0,4.3017,4.3041,4.3266,4.3273,4.3281,4.3436,4.3389,4.3578,4.349,4.3411,4.3484,4.3481,4.3614,4.3632,4.3678,4.3846,4.3856,4.3752,4.3759,4.3763,4.3766,0,0,0,0,0,0,0,4.3004,4.3032,4.3311,4.327,4.3279,4.3287,4.3311,4.3425,4.3524,4.3418,4.3422,4.3447,4.3618,4.3667,4.3683,4.3859,4.3752,4.3761,4.3768,4.3772,4.4133,4.4136,0,0,0,0,0,0,4.2982,4.3021,4.3304,4.3317,4.314,4.3296,4.3323,4.3389,4.3523,4.3541,4.3449,4.3448,4.365,4.3671,4.3691,4.3839,4.3763,4.3774,4.378,4.413,4.4134,4.4137,0,0,0,0,0,0,4.2974,4.3007,4.3295,4.317,4.3208,4.3306,4.3379,4.3394,4.3444,4.3547,4.3564,4.3482,4.3649,4.3676,4.38,4.3847,4.3778,4.3789,4.4127,4.4131,4.4136,4.4135,0,0,0,0,0,0,4.2963,4.3004,4.3052,4.3171,4.3214,4.3402,4.3382,4.3401,4.3464,4.3465,4.3582,4.3599,4.3649,4.3783,4.3811,4.3861,4.3797,4.4123,4.4129,4.4134,4.4131,4.4139,4.4146,0,0,0,0,0,4.2949,4.3042,4.3054,4.3088,4.3277,4.3405,4.3429,4.3486,4.3467,4.3515,4.3581,4.3595,4.3837,4.3795,4.3827,4.3881,4.412,4.4127,4.4134,4.4128,4.4138,4.4145,0,0,0,0,0,0,4.2925,4.3059,4.3074,4.3209,4.3295,4.3412,4.3474,4.3494,4.3587,4.3584,4.3649,4.3675,4.3795,4.385,4.3801,4.4002,4.3977,4.399,4.3962,4.3972,4.3979,4.3963,4.3806,0,0,0,0,0,4.2935,4.303,4.3142,4.325,4.3293,4.3376,4.3434,4.347,4.3562,4.3598,4.3673,4.3759,4.3854,4.3916,4.401,4.4139,4.4164,4.4191,4.4198,4.4204,4.4215,4.4285,4.4298,4.4159,4.4159,4.4159,0,0,4.2958,4.3043,4.3099,4.3247,4.3319,4.3413,4.3406,4.3507,4.3578,4.3613,4.3735,4.3792,4.3893,4.402,4.4079,4.407,4.4258,4.4212,4.4216,4.4224,4.4294,4.4307,4.4318,4.4164,4.4163,4.4162,0,0,4.3048,4.3122,4.3221,4.3292,4.34,4.3455,4.3478,4.3591,4.3631,4.3755,4.3783,4.3866,4.4029,4.41,4.4157,4.427,4.4286,4.4298,4.4336,4.4404,4.4415,4.4425,4.4465,4.4479,4.4309,4.4309,4.4309,0,4.3063,4.3209,4.3268,4.3369,4.3432,4.3469,4.3567,4.3633,4.3765,4.3807,4.3794,4.3999,4.407,4.4213,4.424,4.4285,4.4313,4.4286,4.4409,4.442,4.443,4.4469,4.4484,4.431,4.4309,4.4309,4.4309,0,4.3221,4.3321,4.3387,4.3515,4.3586,4.3685,4.3757,4.3821,4.385,4.3905,4.4029,4.4114,4.4225,4.4261,4.429,4.4408,4.4398,4.4396,4.4373,4.4443,4.448,4.4496,4.4311,4.431,4.431,4.431,0,0,4.3304,4.3463,4.3486,4.3544,4.3665,4.3743,4.3841,4.3951,4.4004,4.4093,4.4177,4.4313,4.4312,4.4376,4.4413,4.4473,4.4556,4.4463,4.4467,4.4477,4.4689,4.469,4.4707,4.4567,4.457,4.4572,4.4681,0,4.3409,4.3589,4.3645,4.3795,4.3887,4.3922,4.4007,4.4089,4.4142,4.4226,4.4283,4.4379,4.4371,4.4409,4.447,4.4533,4.4599,4.4526,4.4643,4.4647,4.4618,4.4727,4.4729,4.4827,4.4696,4.4698,4.47,0,4.3556,4.3649,4.3809,4.3916,4.3957,4.4034,4.4138,4.4218,4.4311,4.4345,4.4416,4.4447,4.4549,4.4518,4.4658,4.4607,4.4657,4.4695,4.47,4.4714,4.4678,4.4743,4.486,4.4875,4.4724,4.4722,4.472,0,4.3601,4.3766,4.3882,4.3931,4.4059,4.4112,4.4167,4.4257,4.4319,4.4409,4.4449,4.4548,4.4603,4.4678,4.4734,4.4707,4.4869,4.4843,4.4898,4.4897,4.4932,4.4929,4.5059,4.4964,4.4963,4.4963,4.4963,0,4.3713,4.3809,4.3904,4.3976,4.4084,4.4144,4.4249,4.4305,4.4385,4.4466,4.4501,4.4576,4.4646,4.4729,4.4773,4.4881,4.4906,4.4934,4.4945,4.4932,4.4928,4.4967,4.4962,4.4967,4.4966,4.4965,4.4965,0,4.3782,4.385,4.3979,4.409,4.412,4.4194,4.4288,4.4357,4.441,4.4513,4.454,4.4623,4.4723,4.4786,4.4913,4.4942,4.5061,4.5069,4.5031,4.5036,4.5087,4.5082,4.5247,4.5271,4.5159,4.516,4.5161,0,4.385,4.3925,4.4043,4.4101,4.4158,4.425,4.4314,4.4375,4.4439,4.4548,4.4604,4.4706,4.4792,4.4949,4.5019,4.5116,4.5127,4.5178,4.5141,4.5125,4.5127,4.5122,4.513,4.5184,4.5185,4.5186,4.5186,0,4.3963,4.3992,4.4083,4.4185,4.426,4.4343,4.4425,4.447,4.4545,4.4614,4.4718,4.4784,4.4913,4.5014,4.5116,4.517,4.519,4.5197,4.5215,4.5203,4.5177,4.5191,4.5047,4.5193,4.5193,4.5192,4.5192,4.5191,4.4034,4.4102,4.4195,4.4295,4.4363,4.4439,4.451,4.4571,4.4659,4.4771,4.48,4.4908,4.4995,4.5135,4.5191,4.5274,4.5267,4.5293,4.53,4.5306,4.5306,4.5163,4.5293,4.5293,4.5293,4.5293,4.5293,0,4.4148,4.421,4.4301,4.4416,4.4493,4.4506,4.4597,4.466,4.4755,4.4836,4.4919,4.5037,4.5134,4.521,4.5309,4.5361,4.5373,4.5385,4.5382,4.5394,4.5307,4.5282,4.5374,4.5374,4.5374,4.5374,4.5374,4.5374,4.4217,4.4332,4.4372,4.452,4.458,4.4688,4.4738,4.4807,4.4872,4.5002,4.5084,4.5133,4.5212,4.5317,4.5405,4.5425,4.5459,4.547,4.5492,4.5409,4.54,4.5392,4.5368,4.5477,4.5477,4.5572,4.5573,4.5573]}]]